Regional Weather Roundup
Issued by NWS

Home | Current Version | Previous Version | Text Only | Print | Product List | Glossary Off
Versions: 1 2 3 4 5 6 7 8 9 10 11 12 13 14 15 16 17 18 19 20 21 22 23 24 25 26 27 28 29 30 31 32 33 34 35 36 37 38 39 40 41 42 43 44 45 46 47 48 49 50

000
ASUS43 KLOT 251706
RWRIL

ILLINOIS REGIONAL WEATHER ROUNDUP
NATIONAL WEATHER SERVICE CHICAGO/ROMEOVILLE IL
1100 AM CST SUN JAN 25 2015

NOTE: "FAIR" INDICATES FEW OR NO CLOUDS BELOW 12,000 FEET WITH NO
SIGNIFICANT WEATHER AND/OR OBSTRUCTIONS TO VISIBILITY.

* THESE STATIONS ARE NOT UNDER NWS QUALITY CONTROL. THEY ALSO MAY NOT
  REPORT WEATHER SUCH AS PRECIPITATION OR FOG.

ILZ001-002-007-009-015-016-024-251800-
NORTHWEST ILLINOIS

CITY           SKY/WX    TMP DP  RH WIND       PRES   REMARKS
MOLINE         LGT SNOW  30  26  85 NE18G31   29.79R VSB 1   WCI  18
STERLING*      CLOUDY    30  25  80 NE15G28   29.80R WCI  19
SAVANNA*       LGT SNOW  31  26  81 NE14      29.84R WCI  21
$$

ILZ003-004-008-010-011-017-018-251800-
NORTH CENTRAL ILLINOIS

CITY           SKY/WX    TMP DP  RH WIND       PRES   REMARKS
ROCKFORD       LGT SNOW  28  21  75 NE24G31   29.86R VSB 1   WCI  14
FREEPORT*      LGT SNOW  28  24  85 NE17G25   29.86R WCI  15
ROCHELLE*      LGT SNOW  28  25  89 NE25G32   29.80R WCI  13
DE KALB*       LGT SNOW  27  24  87 NE17G31   29.80R WCI  15
PERU*          LGT SNOW  33  32  96 NE21G28   29.75R WCI  20
$$

ILZ005-006-012>014-019>023-251800-
NORTHEAST ILLINOIS

CITY           SKY/WX    TMP DP  RH WIND       PRES   REMARKS
CHICAGO-OHARE  LGT SNOW  31  28  89 NE20      29.79R FOG     WCI  19
CHICAGO-MIDWAY LGT SNOW  34  31  88 NE22      29.78R FOG     WCI  22
AURORA         LGT SNOW  32  27  81 NE20G31   29.77R WCI  20
LANSING*       LGT SNOW  32  32  99 NE15G23   29.76R WCI  22
JOLIET*        FLURRIES  33  32  95 NE15G22   29.76R WCI  23
WAUKEGAN       LGT SNOW  28  22  78 N18G28    29.84R WCI  15
DUPAGE AIRPORT LGT SNOW  31  28  89 NE20      29.78R FOG     WCI  19
KANKAKEE*      LGT SNOW  33  32  98 NE12G20   29.72S WCI  24
WHEELING       LGT SNOW  30  27  88 NE15G26   29.83R FOG     WCI  19
MORRIS*        LGT SNOW  33  33  99 NE8       29.74R WCI  26
ROMEOVILLE*    LGT SNOW  33  32  97 NE18      29.76R WCI  21
NORTHERLY ISL    N/A     32  31  96 NE21        N/A  WCI  20
$$

LMZ740>746-251800-
SOUTHERN LAKE MICHIGAN

STATION/POSITION SKY/WX   TEMP    WIND        PRES    VSBY  WAVE
                          AIR SEA DIR/SP/G                  HT/PER
                          (F)     (DEG/KT/KT) (MB)    (MI)  (FT/S)
WAUKEGAN HARBOR            29      40/ 27/ 33   N/A
HARRISON CRIB              32      40/ 22/ 27   N/A
BURNHAM HARBOR             32      40/ 19/ 23   N/A
CALUMET HARBOR             32      30/ 16/ 21   N/A
MICHIGAN CITY              31      30/ 17/ 19   N/A
$$

ILZ025>027-034>036-040-047-049-050-058-095>099-251800-
WEST-CENTRAL ILLINOIS

CITY           SKY/WX    TMP DP  RH WIND       PRES   REMARKS
QUINCY         CLOUDY    39  37  92 NE16      29.63R FOG     WCI  30
GALESBURG*     LGT SNOW  32  31  96 NE23      29.72R WCI  19
MACOMB*        MIX PCPN  33  33  99 NE20      29.72R WCI  21
JACKSONVILLE*  CLOUDY    43  40  90 NE10      29.62R
PITTSFIELD*    CLOUDY    43  40  89 N8        29.62R
$$

ILZ028>032-037-038-041>044-048-051>054-059>061-251800-
CENTRAL ILLINOIS

CITY           SKY/WX    TMP DP  RH WIND       PRES   REMARKS
PONTIAC        LGT SNOW  34  34  99 NE20      29.70S WCI  23
BLOOMINGTON    LGT SNOW  34  34 100 NE18      29.67R FOG     WCI  23
DECATUR        CLOUDY    38  36  92 NE12      29.63R WCI  30
PEORIA         LGT SNOW  35  32  88 NE13G23   29.69R FOG     WCI  26
LACON*         LGT SNOW  32  31  95 NE14G20   29.72R WCI  22
LINCOLN*       DRIZZLE   37  36  96 NE12      29.65S WCI  29
SPRINGFIELD    CLOUDY    40  36  86 NE13      29.63R
TAYLORVILLE    CLOUDY    39  37  93 NE7       29.62R WCI  34
$$

ILZ033-039-045-046-055>057-062-063-251800-
EAST-CENTRAL ILLINOIS

CITY           SKY/WX    TMP DP  RH WIND       PRES   REMARKS
CHAMPAIGN      LGT RAIN  37  36  96 NE14      29.63S FOG     WCI  28
DANVILLE*      RAIN      35  34  96 NE7       29.63F WCI  29
RANTOUL*       LGT RAIN  36  35  96 NE10      29.66R WCI  28
MATTOON        CLOUDY    38  38 100 SE3       29.61S FOG
PARIS*         CLOUDY    38  37  98 E5        29.64F FOG     WCI  34
$$

ILZ079-100>102-251800-
SOUTHWEST ILLINOIS

CITY           SKY/WX    TMP DP  RH WIND       PRES   REMARKS
ALTON          CLOUDY    45  43  93 CALM      29.59R
BELLEVILLE     CLOUDY    44  44  99 SW2       29.58S
CAHOKIA*       CLOUDY    47  44  90 W3        29.59R
SPARTA*        LGT RAIN  42  39  90 SW7       29.60S
$$

ILZ064>066-069>071-074>076-080>082-084>086-088>090-092>094-251800-
SOUTH-CENTRAL ILLINOIS

CITY           SKY/WX    TMP DP  RH WIND       PRES   REMARKS
CARBONDALE     LGT RAIN  42  39  89 S6        29.61F
CAIRO*         RAIN      43  40  88 SW7       29.64F
EFFINGHAM*     DRIZZLE   40  37  91 E3        29.63S
MARION         LGT RAIN  43  41  93 S12       29.62F
MT. VERNON     CLOUDY    43  37  81 S6        29.61F
CENTRALIA*     CLOUDY    42  37  83 S5        29.59F
SALEM*         CLOUDY    44  40  86 S5        29.60F
METROPOLIS*    RAIN      42  42 100 S7        29.63F
$$

ILZ067-068-072-073-078-083-087-091-251800-
SOUTHEAST ILLINOIS

CITY           SKY/WX    TMP DP  RH WIND       PRES   REMARKS
LAWRENCEVILLE  CLOUDY    40  38  93 S8        29.64F
FLORA*         LGT RAIN  40  39  95 SE3       29.61F
FAIRFIELD*     DRIZZLE   41  39  93 S6        29.61F
HARRISBURG*    LGT RAIN  41  40  97 S9        29.64F
ROBINSON*      LGT RAIN  39  38  94 SE6       29.65F WCI  35
CARMI*         LGT RAIN  43  43 100 S5        29.62F
$$

ABBREVIATIONS USED IN REMARKS
   TC - TEMPERATURE IN CELSIUS
  WCI - WIND CHILL INDEX
   HX - HEAT INDEX
  VSB - VISIBILITY
$$



USA.gov is the U.S. government's official web portal to all federal, state and local government web resources and services.